Wind_Speed
26 28 27 27 26 27 28 29 31 29 30 31 36 36 37 37 37 39 40 41 42 44 45 46 48 50 51 53 54 56 58 60 62 64 65 66 67 69 70 71 73 74 76 76
27 28 29 28 26 28 29 30 32 32 31 32 34 36 38 40 40 41 42 43 44 45 47 48 50 51 53 55 57 59 61 63 64 66 67 68 69 70 72 73 75 76 76 76
28 29 30 29 26 28 29 30 32 33 32 33 35 36 39 40 41 42 44 45 46 47 49 50 52 54 56 57 59 61 63 65 66 67 69 70 71 72 74 75 76 77 76 76
29 30 31 28 27 28 30 31 32 34 34 36 37 38 40 41 42 44 45 46 48 49 51 52 54 56 58 59 61 63 65 66 68 69 70 71 73 74 76 77 77 77 76 76
31 32 32 29 28 29 31 32 32 34 36 37 38 40 41 42 44 45 46 48 50 51 52 54 56 58 59 61 63 65 67 68 69 71 72 73 75 76 77 78 78 77 77 76
32 34 34 30 30 31 33 34 33 35 37 38 40 41 42 44 46 47 48 50 51 52 54 56 58 59 61 63 65 67 68 69 70 72 74 75 76 77 78 78 78 77 76 75
34 36 35 32 33 34 35 37 37 38 39 40 42 43 45 46 48 49 50 51 53 54 55 57 59 61 63 65 66 68 69 71 72 74 75 77 78 78 78 79 78 77 76 74
35 37 35 34 36 37 38 39 40 41 42 43 44 45 47 48 49 50 51 53 54 55 57 59 61 63 65 66 68 69 71 72 73 75 77 78 78 78 79 79 78 76 74 70
35 36 37 38 39 40 41 42 42 43 45 46 47 48 49 50 51 52 53 54 56 57 59 60 62 65 66 68 69 71 72 74 75 76 77 78 78 79 78 78 76 74 70 65
37 37 38 40 41 42 43 44 44 45 47 48 49 50 51 51 52 53 54 56 58 59 60 62 64 66 68 70 71 73 74 75 76 77 78 78 78 78 77 75 73 69 65 59
38 39 40 41 42 43 44 45 46 47 48 49 50 51 51 52 53 54 56 58 59 61 63 64 66 68 70 72 73 74 75 77 77 78 78 78 77 76 74 71 68 65 60 55
39 39 40 41 42 44 45 46 48 49 49 50 51 51 52 53 54 56 58 60 61 63 64 66 68 69 71 73 75 76 77 78 78 78 78 77 76 73 69 65 62 58 55 52
40 40 42 43 44 45 46 47 48 49 50 50 51 52 53 54 56 58 60 62 63 64 66 68 69 71 73 74 76 77 78 78 78 78 77 75 73 70 65 59 55 53 51 49
41 42 43 43 44 45 46 46 47 48 49 50 51 53 54 56 58 60 61 63 64 66 68 69 71 73 75 76 77 78 78 78 78 77 75 72 69 65 61 56 51 48 47 46
41 42 43 43 44 45 46 47 48 49 50 51 53 54 56 58 59 61 62 64 66 67 69 71 73 74 76 77 78 78 77 77 76 74 71 68 64 60 57 54 51 47 44 43
41 42 43 44 45 46 47 47 48 49 51 52 54 56 57 59 60 61 63 66 67 69 71 73 75 76 77 78 78 77 76 75 73 70 66 63 60 57 55 52 49 46 43 41
41 42 43 44 45 46 47 48 49 51 52 54 55 57 58 59 61 63 65 67 69 71 73 75 76 77 78 78 77 76 74 72 69 65 62 59 57 55 52 49 46 43 40 39
42 43 44 45 45 46 47 49 50 51 53 55 56 57 59 60 62 65 67 69 71 72 74 76 77 77 77 76 75 74 71 68 64 61 59 57 55 52 49 46 43 40 37 35
42 43 44 44 45 47 48 49 50 52 54 55 57 58 60 63 65 67 70 71 73 74 75 77 77 77 76 75 73 70 67 64 61 58 56 54 51 49 46 43 39 37 35 34
41 42 43 44 46 47 49 50 52 53 55 56 58 60 63 65 68 70 71 73 75 77 77 77 76 75 74 71 69 66 63 60 58 55 53 51 48 45 42 39 36 35 34 33
42 43 44 46 47 49 50 51 53 54 56 59 61 63 66 68 70 72 74 75 75 77 77 76 75 72 70 66 64 62 60 57 54 52 49 46 43 40 38 35 34 33 33 33
43 45 46 47 49 50 51 53 55 57 59 62 64 67 69 70 72 73 75 77 77 77 75 73 70 68 65 63 61 59 57 54 51 48 45 43 40 37 35 33 33 32 32 31
45 46 47 49 50 52 54 56 58 60 62 65 67 69 71 72 74 76 76 76 76 74 71 68 66 64 62 61 59 57 54 50 46 44 42 39 38 35 34 32 32 31 30 30
47 48 50 51 53 55 56 58 61 63 66 68 70 71 73 74 75 76 76 74 72 69 66 65 63 62 60 58 56 53 49 46 42 40 39 37 36 34 32 31 30 29 28 29
49 51 52 54 56 58 60 62 64 66 68 70 71 73 74 75 76 74 72 70 67 66 64 62 60 59 57 54 50 47 44 41 39 37 36 35 33 32 31 30 29 28 28 28
52 54 56 58 60 62 64 66 68 69 71 72 72 73 74 74 73 71 69 67 65 62 60 58 57 54 51 47 44 41 39 37 36 35 34 33 31 30 29 28 27 27 27 28
55 57 59 61 63 65 67 68 70 71 72 73 73 73 72 71 69 67 66 63 61 58 56 54 51 48 45 43 40 38 36 35 34 33 32 30 29 28 27 27 26 26 26 27
Wind_Direction
254 259 263 264 266 270 273 277 281 285 286 289 292 295 297 298 299 300 301 301 301 301 301 301 301 302 302 303 303 304 304 305 305 306 306 306 306 306 307 307 307 307 307 307
254 260 264 267 271 273 276 279 282 284 287 288 290 293 296 298 300 300 301 301 301 301 301 301 301 302 303 303 304 305 305 306 306 306 307 307 307 307 308 308 308 308 308 308
256 260 265 269 273 275 278 280 283 286 288 289 290 292 294 297 299 300 300 301 301 301 301 301 302 302 303 304 305 305 306 306 307 307 307 308 308 309 309 309 309 309 309 308
259 262 266 273 275 278 279 281 284 287 289 290 292 293 295 297 299 299 300 301 301 301 301 302 302 303 304 304 305 306 307 307 308 308 309 309 310 310 310 310 310 310 310 309
263 266 270 274 279 280 281 282 286 288 289 291 293 294 296 298 298 299 300 300 301 301 302 302 303 304 304 305 306 307 308 309 309 309 310 310 311 311 311 311 311 311 311 310
266 269 273 278 281 282 283 285 287 288 290 292 293 295 297 298 299 300 300 301 302 302 303 303 304 305 306 307 307 308 309 310 310 310 311 311 312 312 312 312 312 312 311 310
268 271 275 282 284 285 286 289 289 291 292 293 295 296 298 299 300 301 302 302 303 303 304 304 305 306 307 308 308 309 310 311 311 312 312 312 312 313 313 313 313 312 312 311
268 273 280 283 285 286 288 289 291 293 294 296 297 298 299 300 301 302 303 303 304 304 305 306 306 307 308 309 309 310 311 312 312 313 313 313 313 314 314 314 313 313 312 311
270 275 279 282 285 287 288 289 291 293 295 296 298 299 300 301 302 303 303 304 305 306 306 307 308 308 309 310 311 311 312 312 313 313 313 314 314 314 314 314 313 313 313 312
273 276 280 282 285 286 287 289 291 293 295 297 298 299 300 301 302 303 304 305 306 307 307 308 309 309 310 311 311 312 313 313 313 314 314 314 315 315 315 314 313 313 313 312
274 277 280 282 284 285 287 289 291 293 295 297 298 299 300 301 302 303 305 306 307 307 308 309 309 310 311 311 312 313 313 313 314 314 314 315 315 316 315 315 314 314 313 312
275 277 278 281 283 285 287 289 291 293 295 296 298 300 301 302 303 304 305 306 307 308 309 309 310 311 311 312 313 313 314 314 314 315 315 315 316 316 315 314 314 313 313 312
277 278 280 282 284 286 287 289 291 293 295 297 298 300 301 302 304 305 306 307 307 308 309 310 311 312 312 313 313 314 314 314 315 315 316 316 316 316 315 314 313 313 312 311
277 279 281 284 285 287 289 290 292 294 296 297 298 300 301 303 304 305 306 307 308 309 310 310 311 312 313 313 314 314 314 315 315 316 316 316 316 316 315 315 313 312 311 309
277 279 281 283 285 288 290 292 293 295 296 298 299 301 302 303 304 305 306 307 308 309 310 311 312 312 313 313 314 314 314 314 315 315 315 315 315 315 315 314 314 313 311 309
278 280 282 284 286 288 291 292 294 296 297 299 300 301 303 304 305 306 307 308 309 310 311 311 312 312 313 313 314 314 314 314 314 315 315 315 315 315 314 314 313 313 312 310
280 281 283 285 287 290 292 294 295 297 298 299 301 302 303 304 305 306 307 308 309 310 311 311 312 313 313 313 313 314 314 314 314 314 314 314 315 314 314 314 313 312 312 311
281 283 285 287 289 291 293 294 296 297 299 300 301 303 304 305 306 307 308 309 309 310 311 312 312 313 313 313 313 314 314 314 314 314 314 314 314 314 314 314 313 312 312 311
283 284 286 288 290 292 293 295 296 298 300 301 302 303 304 305 306 307 308 309 310 310 311 312 312 313 313 313 313 314 314 314 313 313 314 314 314 313 313 313 313 313 313 312
284 286 287 289 291 292 294 296 297 299 300 301 303 304 305 306 307 307 309 310 311 311 311 312 312 312 313 313 313 314 314 313 313 313 314 314 314 313 313 312 312 313 313 313
286 287 289 290 292 294 296 297 298 300 301 302 303 304 305 306 307 308 309 310 311 311 311 312 312 313 313 313 313 314 314 313 313 313 313 314 314 314 313 312 312 313 313 314
286 288 290 292 294 295 297 298 299 301 302 303 304 305 306 306 307 308 309 310 311 311 311 312 313 313 313 314 314 314 314 313 312 312 313 314 314 314 313 312 312 313 313 314
287 289 291 293 294 296 297 299 300 301 302 303 304 305 306 307 308 309 310 310 311 311 312 312 312 313 313 313 313 313 313 313 312 312 313 314 314 314 313 313 313 313 313 314
288 290 292 293 295 296 298 299 300 302 303 304 305 305 306 307 308 309 310 311 311 311 312 312 312 312 312 313 313 312 312 312 311 311 312 313 313 313 313 313 313 313 313 315
289 290 292 294 296 297 298 299 301 302 303 304 305 306 307 308 308 309 310 310 311 311 311 311 312 312 312 312 312 312 312 311 311 312 312 313 313 312 312 312 312 312 313 314
290 292 293 295 296 298 299 300 301 302 303 304 305 306 307 307 308 309 309 310 310 310 310 311 311 312 312 313 312 312 312 312 312 312 312 313 313 313 313 313 313 313 314 314
291 292 294 296 297 298 300 301 302 303 304 305 305 306 307 307 308 308 309 310 310 310 310 311 312 312 313 313 312 311 311 312 313 313 313 313 313 313 314 314 313 314 315 316
Height
5755 5754 5756 5757 5758 5757 5756 5756 5754 5754 5752 5750 5745 5742 5740 5738 5735 5732 5728 5724 5720 5715 5711 5707 5702 5696 5691 5685 5679 5673 5667 5660 5652 5644 5637 5628 5620 5612 5603 5594 5584 5574 5564 5554
5749 5748 5748 5750 5751 5750 5749 5748 5746 5745 5745 5742 5738 5735 5731 5728 5726 5722 5718 5714 5710 5705 5700 5696 5690 5685 5679 5673 5667 5660 5653 5645 5637 5629 5621 5613 5604 5595 5585 5576 5566 5555 5544 5534
5742 5742 5741 5744 5745 5743 5742 5741 5739 5737 5737 5733 5731 5727 5724 5720 5717 5713 5709 5704 5700 5695 5690 5684 5679 5673 5667 5660 5653 5646 5638 5630 5622 5613 5605 5596 5586 5577 5567 5557 5546 5536 5525 5514
5734 5735 5735 5740 5738 5736 5734 5733 5731 5728 5726 5724 5722 5718 5715 5711 5707 5703 5698 5694 5689 5684 5678 5672 5666 5660 5654 5646 5639 5631 5623 5614 5606 5597 5588 5578 5569 5559 5548 5537 5527 5516 5505 5494
5726 5726 5727 5730 5730 5727 5725 5725 5723 5720 5718 5715 5712 5709 5706 5701 5697 5693 5688 5683 5678 5672 5666 5660 5653 5647 5640 5632 5624 5616 5607 5599 5589 5580 5570 5561 5550 5540 5529 5518 5507 5496 5485 5474
5718 5717 5718 5722 5721 5718 5717 5716 5714 5711 5708 5706 5702 5699 5697 5691 5686 5682 5677 5671 5665 5659 5653 5647 5640 5633 5626 5618 5609 5600 5592 5582 5573 5562 5552 5542 5531 5520 5509 5498 5487 5476 5466 5454
5710 5708 5710 5713 5710 5708 5708 5707 5704 5701 5698 5695 5692 5689 5685 5680 5675 5670 5664 5659 5653 5647 5640 5633 5626 5618 5611 5602 5593 5584 5575 5566 5556 5545 5534 5523 5513 5501 5490 5479 5468 5457 5447 5436
5702 5701 5704 5702 5700 5699 5697 5695 5693 5690 5687 5684 5681 5677 5673 5668 5663 5657 5652 5646 5640 5634 5627 5619 5611 5603 5596 5587 5578 5569 5559 5549 5539 5528 5516 5505 5493 5482 5470 5458 5448 5437 5426 5417
5695 5696 5694 5692 5690 5688 5686 5684 5682 5679 5676 5673 5669 5665 5660 5655 5650 5645 5639 5633 5626 5620 5613 5605 5596 5588 5580 5571 5561 5552 5542 5532 5521 5510 5498 5486 5474 5463 5452 5439 5428 5417 5407 5399
5685 5685 5684 5682 5680 5678 5676 5673 5671 5668 5665 5661 5657 5652 5648 5643 5637 5632 5626 5619 5612 5605 5598 5590 5581 5572 5563 5554 5545 5535 5525 5514 5503 5492 5481 5469 5457 5444 5432 5420 5409 5399 5389 5381
5675 5675 5673 5672 5670 5667 5665 5662 5660 5656 5653 5649 5645 5640 5635 5630 5624 5618 5612 5605 5598 5591 5583 5575 5566 5557 5547 5537 5528 5518 5507 5496 5485 5474 5462 5451 5440 5427 5414 5403 5390 5381 5373 5366
5665 5664 5663 5662 5660 5657 5654 5651 5648 5645 5641 5637 5632 5627 5622 5617 5611 5605 5598 5591 5584 5576 5568 5559 5550 5541 5531 5521 5510 5500 5489 5478 5467 5455 5444 5432 5421 5412 5400 5387 5377 5367 5358 5351
5654 5652 5651 5650 5648 5645 5643 5640 5636 5632 5629 5624 5620 5615 5609 5604 5598 5591 5584 5577 5569 5561 5553 5544 5535 5525 5514 5504 5493 5482 5471 5460 5448 5437 5425 5414 5403 5393 5385 5377 5366 5356 5347 5340
5643 5641 5640 5638 5636 5633 5630 5627 5624 5620 5616 5612 5607 5602 5596 5590 5584 5577 5569 5562 5554 5546 5537 5528 5518 5508 5497 5487 5476 5465 5453 5441 5430 5419 5408 5397 5386 5376 5367 5360 5354 5347 5338 5329
5632 5630 5628 5626 5624 5621 5618 5615 5612 5608 5603 5599 5594 5588 5583 5577 5570 5563 5555 5547 5539 5530 5521 5511 5502 5491 5480 5469 5459 5447 5436 5424 5413 5402 5391 5381 5371 5362 5353 5346 5339 5333 5327 5320
5620 5618 5617 5615 5612 5610 5606 5603 5599 5595 5590 5586 5580 5575 5569 5562 5555 5548 5540 5531 5523 5515 5505 5495 5485 5474 5463 5452 5441 5430 5419 5408 5396 5385 5376 5366 5357 5348 5340 5333 5326 5320 5314 5308
5609 5607 5605 5603 5600 5597 5594 5590 5586 5582 5577 5572 5567 5561 5554 5548 5541 5533 5525 5516 5507 5498 5488 5477 5467 5457 5446 5434 5423 5412 5402 5392 5380 5370 5361 5352 5343 5335 5328 5320 5314 5308 5302 5296
5597 5595 5593 5591 5588 5585 5581 5577 5573 5568 5563 5558 5552 5546 5540 5533 5526 5518 5510 5501 5492 5483 5472 5460 5449 5439 5428 5416 5405 5395 5384 5374 5365 5356 5347 5339 5330 5323 5316 5309 5302 5297 5292 5287
5585 5583 5581 5578 5575 5572 5568 5564 5560 5555 5549 5544 5538 5532 5525 5518 5510 5502 5494 5485 5475 5466 5456 5444 5433 5421 5411 5399 5388 5378 5368 5359 5350 5342 5334 5326 5318 5311 5304 5298 5292 5287 5282 5277
5573 5571 5568 5566 5562 5559 5555 5551 5546 5541 5535 5529 5523 5517 5510 5502 5494 5486 5477 5468 5457 5445 5436 5426 5415 5404 5393 5383 5372 5362 5353 5344 5336 5329 5321 5314 5307 5300 5294 5288 5283 5278 5273 5269
5561 5559 5556 5553 5550 5546 5541 5537 5532 5527 5521 5514 5508 5501 5494 5486 5477 5468 5459 5451 5441 5428 5418 5407 5396 5386 5376 5366 5357 5348 5339 5331 5323 5316 5309 5302 5296 5290 5284 5279 5274 5270 5265 5260
5549 5546 5543 5540 5536 5532 5528 5522 5517 5512 5506 5499 5492 5484 5477 5469 5460 5451 5442 5430 5421 5410 5400 5390 5379 5369 5360 5351 5342 5334 5326 5318 5310 5304 5297 5291 5286 5280 5275 5270 5266 5261 5257 5252
5536 5533 5530 5526 5523 5518 5513 5508 5502 5496 5490 5483 5475 5467 5459 5451 5441 5432 5424 5415 5402 5392 5382 5373 5363 5354 5345 5337 5328 5320 5313 5305 5299 5293 5287 5281 5276 5271 5267 5262 5258 5253 5249 5244
5523 5520 5516 5512 5508 5504 5499 5493 5487 5481 5474 5466 5458 5449 5440 5432 5425 5414 5403 5394 5385 5375 5366 5357 5348 5339 5331 5323 5315 5307 5300 5294 5288 5282 5277 5272 5267 5263 5258 5254 5250 5246 5241 5237
5509 5506 5502 5498 5493 5488 5483 5477 5471 5464 5457 5449 5441 5432 5422 5412 5404 5396 5387 5377 5368 5359 5351 5343 5334 5325 5317 5309 5302 5295 5289 5283 5278 5273 5268 5263 5259 5254 5250 5246 5242 5238 5234 5230
5495 5491 5487 5482 5477 5472 5466 5460 5454 5446 5438 5432 5424 5415 5405 5395 5386 5377 5369 5360 5352 5343 5335 5328 5320 5312 5304 5297 5291 5284 5279 5273 5269 5264 5259 5254 5250 5246 5243 5239 5235 5231 5227 5222
5480 5476 5471 5466 5461 5454 5448 5442 5435 5428 5420 5411 5405 5397 5387 5378 5369 5360 5352 5344 5336 5329 5321 5314 5306 5299 5293 5286 5280 5275 5270 5265 5260 5255 5251 5247 5243 5239 5236 5232 5228 5224 5220 5215